| time (UTC) | temp F | wind direction | speed knots | gust knots | rain 1hr in | rain 24hr in | rain mn in | humidity % | barometer mb |
| 20260902211532 | 57 | 356 | 0.9 | 3.5 | 0.04 | 0.04 | 0.03 | 86 | 1010.6 |
| 20260902204534 | 57 | 50 | 0.9 | 3.5 | 0.01 | 0.01 | 0.00 | 81 | 1010.8 |
| 20260902201530 | 59 | 199 | 0.0 | 3.5 | 0.00 | 0.00 | 0.00 | 76 | 1011.1 |
| 20260902200029 | 59 | 210 | 1.7 | 5.2 | 0.00 | 0.00 | 0.00 | 74 | 1010.9 |
| 20260902194531 | 59 | 259 | 1.7 | 5.2 | 0.00 | 0.00 | 0.00 | 72 | 1010.9 |
| 20260902193032 | 59 | 240 | 1.7 | 6.1 | 0.00 | 0.00 | 0.00 | 70 | 1010.9 |
| 20260902191532 | 60 | 158 | 0.9 | 4.3 | 0.00 | 0.00 | 0.00 | 69 | 1010.8 |
| 20260902190030 | 60 | 122 | 2.6 | 7.8 | 0.00 | 0.00 | 0.00 | 73 | 1010.9 |
| 20260902184530 | 61 | 344 | 1.7 | 4.3 | 0.00 | 0.00 | 0.00 | 72 | 1011.1 |
| 20260902183107 | 61 | 303 | 0.9 | 4.3 | 0.00 | 0.00 | 0.00 | 72 | 1011.1 |
| 20260902181609 | 61 | 303 | 1.7 | 4.3 | 0.00 | 0.00 | 0.00 | 72 | 1010.9 |
| 20260902180106 | 60 | 285 | 0.9 | 3.5 | 0.00 | 0.00 | 0.00 | 73 | 1010.9 |
| 20260902174531 | 60 | 298 | 1.7 | 6.1 | 0.00 | 0.00 | 0.00 | 73 | 1010.9 |
| 20260902173032 | 61 | 303 | 3.5 | 7.8 | 0.00 | 0.00 | 0.00 | 72 | 1010.9 |
| 20260902171529 | 61 | 291 | 3.5 | 6.1 | 0.00 | 0.00 | 0.00 | 73 | 1011.0 |
| 20260902170029 | 60 | 334 | 3.5 | 6.1 | 0.00 | 0.00 | 0.00 | 74 | 1011.2 |
| 20260902164529 | 59 | 307 | 3.5 | 6.1 | 0.00 | 0.00 | 0.00 | 74 | 1011.4 |
| 20260902163106 | 59 | 334 | 1.7 | 5.2 | 0.00 | 0.00 | 0.00 | 73 | 1011.7 |
| 20260902161532 | 58 | 35 | 0.9 | 4.3 | 0.00 | 0.00 | 0.00 | 74 | 1011.9 |
| 20260902154529 | 55 | 135 | 0.0 | 1.7 | 0.00 | 0.00 | 0.00 | 81 | 1012.1 |
| 20260902153029 | 54 | 141 | 0.9 | 4.3 | 0.00 | 0.00 | 0.00 | 84 | 1012.3 |
| 20260902151530 | 52 | 208 | 0.9 | 2.6 | 0.00 | 0.00 | 0.00 | 87 | 1012.1 |
| 20260902150029 | 51 | 187 | 0.9 | 2.6 | 0.00 | 0.00 | 0.00 | 88 | 1012.2 |
| 20260902143032 | 49 | 198 | 1.7 | 3.5 | 0.00 | 0.00 | 0.00 | 89 | 1012.3 |
| 20260902130032 | 49 | 61 | 1.7 | 3.5 | 0.00 | 0.00 | 0.00 | 82 | 1012.6 |
| 20260902124532 | 51 | 165 | 1.7 | 5.2 | 0.00 | 0.00 | 0.00 | 80 | 1012.8 |
| 20260902123106 | 52 | 3 | 2.6 | 6.1 | 0.00 | 0.00 | 0.00 | 79 | 1012.7 |
| 20260902121531 | 52 | 29 | 2.6 | 6.1 | 0.00 | 0.00 | 0.00 | 77 | 1012.9 |
| 20260902120029 | 54 | 33 | 0.9 | 4.3 | 0.00 | 0.00 | 0.00 | 74 | 1012.9 |
| 20260902113030 | 55 | 334 | 4.3 | 9.6 | 0.00 | 0.00 | 0.00 | 73 | 1012.9 |
| 20260902111531 | 55 | 332 | 4.3 | 8.7 | 0.00 | 0.00 | 0.00 | 73 | 1012.9 |
| 20260902110030 | 55 | 340 | 4.3 | 9.6 | 0.00 | 0.00 | 0.00 | 74 | 1013.0 |
| 20260902104527 | 55 | 344 | 3.5 | 8.7 | 0.00 | 0.00 | 0.00 | 74 | 1013.1 |
| 20260902103029 | 56 | 5 | 2.6 | 6.1 | 0.00 | 0.00 | 0.00 | 74 | 1013.3 |
| 20260902101531 | 56 | 356 | 4.3 | 11.3 | 0.00 | 0.00 | 0.00 | 73 | 1013.4 |
| 20260902100033 | 57 | 330 | 5.2 | 10.4 | 0.00 | 0.00 | 0.00 | 71 | 1013.4 |
| 20260902094531 | 57 | 302 | 5.2 | 15.6 | 0.00 | 0.00 | 0.00 | 70 | 1013.5 |
| 20260902093031 | 57 | 303 | 6.1 | 12.2 | 0.00 | 0.00 | 0.00 | 70 | 1013.7 |
| 20260902091531 | 57 | 308 | 6.1 | 12.2 | 0.00 | 0.00 | 0.00 | 70 | 1013.7 |
| 20260902090031 | 57 | 297 | 5.2 | 12.2 | 0.00 | 0.00 | 0.00 | 71 | 1013.7 |
| 20260902084606 | 57 | 305 | 6.1 | 14.8 | 0.00 | 0.00 | 0.00 | 71 | 1013.7 |
| 20260902081531 | 57 | 325 | 5.2 | 12.2 | 0.00 | 0.00 | 0.00 | 74 | 1013.8 |
| 20260902080029 | 57 | 339 | 4.3 | 10.4 | 0.00 | 0.00 | 0.00 | 74 | 1013.9 |
| 20260902073105 | 57 | 329 | 5.2 | 12.2 | 0.00 | 0.00 | 0.00 | 74 | 1014.0 |
| 20260902071530 | 57 | 326 | 6.1 | 11.3 | 0.00 | 0.00 | 0.00 | 73 | 1014.1 |
| 20260902070029 | 58 | 326 | 6.1 | 13.9 | 0.00 | 0.00 | 0.00 | 73 | 1014.4 |
| 20260902064531 | 58 | 326 | 6.1 | 11.3 | 0.00 | 0.00 | 0.00 | 73 | 1014.5 |
| 20260902063029 | 58 | 331 | 5.2 | 11.3 | 0.00 | 0.00 | 0.00 | 72 | 1014.7 |
| 20260902061531 | 59 | 323 | 5.2 | 11.3 | 0.00 | 0.00 | 0.00 | 71 | 1014.7 |
| 20260902060031 | 59 | 335 | 3.5 | 7.8 | 0.00 | 0.00 | 0.00 | 70 | 1014.9 |
| 20260902054530 | 59 | 292 | 2.6 | 9.6 | 0.00 | 0.00 | 0.00 | 68 | 1014.9 |
| 20260902053030 | 59 | 275 | 3.5 | 8.7 | 0.00 | 0.00 | 0.00 | 68 | 1014.8 |
| 20260902051646 | 59 | 313 | 3.5 | 10.4 | 0.00 | 0.00 | 0.00 | 69 | 1014.8 |
| 20260902050029 | 59 | 286 | 3.5 | 13.0 | 0.00 | 0.00 | 0.00 | 69 | 1014.6 |
| 20260902044601 | 59 | 289 | 2.6 | 8.7 | 0.00 | 0.00 | 0.00 | 68 | 1014.5 |
| 20260902043029 | 60 | 269 | 4.3 | 11.3 | 0.00 | 0.00 | 0.00 | 68 | 1014.4 |
| 20260902040027 | 60 | 279 | 5.2 | 10.4 | 0.00 | 0.00 | 0.00 | 68 | 1014.1 |
| 20260902033029 | 60 | 294 | 6.1 | 14.8 | 0.00 | 0.00 | 0.00 | 67 | 1013.6 |
| 20260902031609 | 60 | 303 | 5.2 | 13.0 | 0.00 | 0.00 | 0.00 | 66 | 1013.6 |
| 20260902030029 | 60 | 277 | 7.0 | 18.2 | 0.00 | 0.00 | 0.00 | 66 | 1013.6 |
| 20260902024530 | 60 | 279 | 5.2 | 15.6 | 0.00 | 0.00 | 0.00 | 66 | 1013.8 |
| 20260902023032 | 61 | 294 | 5.2 | 12.2 | 0.00 | 0.00 | 0.00 | 65 | 1013.6 |
| 20260902021533 | 61 | 283 | 5.2 | 13.9 | 0.00 | 0.00 | 0.00 | 63 | 1013.9 |
| 20260902014532 | 62 | 316 | 5.2 | 11.3 | 0.00 | 0.00 | 0.00 | 62 | 1013.6 |
| 20260902013032 | 63 | 295 | 6.1 | 19.1 | 0.00 | 0.00 | 0.00 | 61 | 1013.5 |
| 20260902011532 | 64 | 306 | 4.3 | 10.4 | 0.00 | 0.00 | 0.00 | 60 | 1013.3 |
| 20260902010109 | 64 | 303 | 6.1 | 15.6 | 0.00 | 0.00 | 0.00 | 61 | 1013.2 |
| 20260902004534 | 64 | 310 | 5.2 | 12.2 | 0.00 | 0.00 | 0.00 | 63 | 1013.1 |
| 20260902003145 | 64 | 318 | 7.8 | 17.4 | 0.00 | 0.00 | 0.00 | 62 | 1012.9 |
| 20260902001532 | 64 | 309 | 6.1 | 14.8 | 0.00 | 0.00 | 0.00 | 61 | 1012.7 |
| 20260902000146 | 65 | 312 | 5.2 | 14.8 | 0.00 | 0.00 | 0.00 | 62 | 1012.7 |
| 20260901233031 | 65 | 335 | 6.1 | 13.9 | 0.00 | 0.00 | 0.00 | 60 | 1012.6 |
| 20260901231531 | 67 | 317 | 7.8 | 16.5 | 0.00 | 0.00 | 0.00 | 57 | 1012.5 |
| 20260901230035 | 67 | 317 | 6.1 | 14.8 | 0.00 | 0.00 | 0.00 | 58 | 1012.6 |
| 20260901224532 | 68 | 309 | 7.8 | 17.4 | 0.00 | 0.00 | 0.00 | 56 | 1012.4 |
| 20260901223031 | 68 | 318 | 7.8 | 19.1 | 0.00 | 0.00 | 0.00 | 56 | 1012.4 |
| 20260901220030 | 69 | 321 | 8.7 | 19.1 | 0.00 | 0.00 | 0.00 | 56 | 1012.1 |
| 20260901214606 | 69 | 316 | 7.8 | 17.4 | 0.00 | 0.00 | 0.00 | 56 | 1011.9 |
| 20260901213029 | 69 | 323 | 6.1 | 17.4 | 0.00 | 0.00 | 0.00 | 56 | 1012.1 |